Probability
0 0 0 0 0 0 0 0 0 0 0 1 2 3 2 0 0 0 0 0 0 0 0 0 1 2 3 3 2 2 2 1 0 0 0 0 0 0 0 0 0 0 0 0 0 0 0 0 0
0 0 0 0 0 0 0 0 0 0 0 2 3 4 3 1 0 0 0 0 0 0 0 0 0 1 2 2 1 1 1 0 0 0 0 0 0 0 0 0 0 0 0 0 0 0 0 0 0
0 0 0 0 0 0 0 0 0 0 1 3 5 5 3 1 0 0 0 0 0 0 0 0 0 1 1 1 0 0 0 0 0 0 0 0 0 0 1 0 0 0 0 0 0 0 0 0 0
0 0 0 0 0 0 0 0 0 0 1 3 5 4 1 0 0 1 1 1 1 1 0 0 0 0 0 0 0 0 0 0 0 0 0 0 0 0 0 0 0 0 0 0 0 0 0 0 0
0 0 0 0 0 0 0 0 0 0 1 3 4 3 1 0 1 2 2 2 2 2 1 0 0 0 0 0 0 0 0 0 0 0 0 0 0 0 0 0 0 0 0 0 0 0 0 0 0
0 0 0 0 0 0 0 1 1 2 2 3 4 4 2 1 2 3 3 3 3 3 2 1 0 0 0 0 0 0 0 0 0 0 0 0 0 0 0 0 0 0 0 0 0 0 0 0 0
0 0 0 0 0 0 0 1 2 3 3 4 5 5 3 1 1 3 3 3 3 3 2 1 0 0 0 0 0 0 0 0 0 0 0 0 0 0 0 0 0 0 0 0 0 0 0 0 0
0 0 0 0 0 0 0 1 2 3 3 3 5 5 4 3 3 3 3 2 2 2 2 1 0 0 0 0 0 0 0 0 0 0 0 0 0 0 0 0 0 0 0 0 0 0 0 0 0
0 0 0 0 0 0 0 2 3 3 3 3 4 6 8 8 7 4 2 1 0 1 1 0 0 0 0 0 0 0 0 0 0 0 0 0 0 0 0 0 0 0 0 0 0 0 0 1 1
0 0 0 0 0 0 1 3 4 3 2 4 7 11 14 14 9 5 2 0 0 0 0 0 0 0 0 0 0 0 0 0 0 0 0 0 0 0 0 0 0 0 0 0 0 0 0 0 0
0 0 0 0 0 0 1 3 3 2 2 5 11 17 18 15 10 6 2 0 0 0 0 0 0 0 0 0 0 0 0 0 0 0 0 0 0 0 0 0 0 0 0 0 0 0 0 0 0
0 0 0 0 0 0 1 1 1 1 2 7 15 20 17 12 8 5 1 0 0 0 0 0 0 0 0 0 0 0 0 0 0 0 0 0 0 0 0 0 0 0 0 0 0 0 0 0 0
0 0 0 0 0 0 0 0 0 1 3 9 19 21 15 9 6 3 1 1 1 0 0 0 0 0 0 0 0 0 0 0 0 0 0 0 0 0 0 0 0 0 0 0 0 0 0 0 0
0 0 0 0 0 0 0 0 0 1 5 12 19 18 11 7 6 4 3 2 2 1 0 0 0 0 0 0 0 0 0 0 0 0 0 0 0 0 0 0 0 0 0 0 0 0 0 0 0
0 0 0 0 0 0 0 0 0 2 6 11 14 12 7 6 6 6 4 3 3 2 1 0 0 0 0 0 0 0 0 0 0 0 0 0 0 0 0 0 0 0 0 0 0 0 0 0 0
0 0 0 0 0 0 0 0 1 3 6 8 8 8 7 6 7 6 5 4 3 3 3 2 1 0 0 0 0 0 0 0 0 0 0 0 0 0 0 0 0 0 0 0 0 0 0 0 0
0 0 0 0 0 0 0 0 2 6 7 6 6 7 8 8 7 6 6 5 4 5 6 6 3 1 0 0 0 0 0 0 0 0 0 0 0 0 0 0 0 0 0 0 0 0 0 0 0
0 0 0 0 0 0 0 0 3 7 7 5 5 6 8 8 7 7 7 7 7 7 8 8 5 3 1 1 0 0 0 0 0 0 0 0 0 0 0 0 0 0 0 0 0 0 0 0 0
0 0 0 0 0 0 0 0 3 6 7 5 4 6 8 8 8 8 8 8 9 10 10 9 7 4 2 1 0 0 0 0 0 0 0 1 1 0 0 0 0 0 0 0 0 0 0 0 0
0 0 0 1 2 1 1 1 2 5 6 4 4 5 7 8 10 11 12 11 11 12 13 12 9 6 4 2 0 0 0 0 0 0 1 2 2 1 1 1 0 0 0 0 0 0 0 0 0
0 0 1 2 3 2 1 1 2 4 6 4 2 3 5 8 11 15 16 16 15 15 15 15 14 11 8 5 2 1 1 1 1 1 1 3 3 3 3 2 1 0 0 0 0 0 0 0 0
0 0 1 2 2 1 1 0 0 2 4 3 1 1 4 8 13 18 21 22 23 22 19 19 18 16 13 8 5 4 3 2 2 2 2 3 3 3 3 2 1 0 0 0 0 0 0 0 0
0 0 1 1 1 0 0 0 0 1 2 1 1 1 3 9 15 22 25 29 31 29 26 24 22 18 14 11 9 7 6 4 2 2 3 4 3 3 3 3 2 1 1 0 0 0 0 0 0
0 0 0 0 0 0 0 0 0 0 0 1 1 3 6 11 18 24 28 32 34 35 33 31 26 19 15 13 12 11 10 7 4 3 3 4 4 3 4 5 4 3 2 1 0 0 0 0 0
0 0 0 0 0 0 0 0 0 0 0 0 1 5 10 16 20 24 28 32 35 37 38 36 29 22 18 16 15 14 12 10 7 5 5 5 4 4 5 6 5 4 4 2 1 0 0 0 0
0 0 0 0 0 1 1 1 1 1 1 1 2 5 12 17 18 20 25 31 33 35 37 37 30 24 21 20 18 16 14 12 10 9 8 7 6 6 6 6 6 6 5 4 1 0 0 0 0
0 0 0 0 0 1 2 2 2 2 2 2 3 5 9 13 14 16 22 27 29 30 31 32 30 27 26 24 20 17 16 16 14 12 10 9 9 8 7 6 6 6 6 5 3 1 0 0 0
0 0 0 0 0 1 2 2 2 2 2 2 2 3 6 8 11 15 20 22 24 25 25 26 28 29 30 26 21 18 18 18 16 13 11 11 10 9 8 7 7 6 6 6 4 2 0 0 1
0 0 0 0 0 0 1 1 1 1 1 1 2 3 4 6 10 14 18 19 19 20 21 21 22 26 28 24 19 17 17 16 14 12 11 11 10 8 8 8 7 7 6 6 5 3 1 0 1
0 0 0 0 0 0 0 0 1 2 2 2 3 4 4 6 9 12 15 17 17 17 19 19 18 22 25 21 16 16 15 13 12 12 11 10 9 8 8 9 8 7 6 6 5 2 1 0 1
Wind_Speed
3 1 1 2 5 6 3 2 1 2 2 2 4 5 6 4 2 4 3 6 9 8 6 10 13 13 14 14 14 15 15 15 15 15 15 15 15 15 15 15 15 15 16 15 15 15 14 14 13
1 1 2 4 6 4 3 2 1 1 3 3 5 5 6 5 5 8 5 7 9 8 6 9 13 13 13 13 13 14 14 14 15 15 15 15 14 15 15 15 15 15 15 15 14 14 14 13 13
1 1 4 5 4 3 1 1 1 2 2 2 4 5 5 4 6 5 6 10 9 7 6 9 14 13 13 13 13 13 13 13 14 14 14 14 14 14 14 14 14 14 14 14 14 14 13 13 12
2 4 5 6 3 1 2 1 2 2 2 4 4 5 5 4 5 7 11 11 9 6 5 8 14 13 13 12 12 12 12 13 13 13 13 13 13 13 13 13 13 13 13 13 13 13 12 12 11
4 5 6 4 1 1 1 2 3 2 2 4 4 5 4 4 10 13 12 11 9 6 5 7 13 13 12 12 11 11 12 12 12 12 12 12 12 12 13 12 13 13 12 12 12 12 11 10 10
5 5 5 1 2 1 1 2 3 3 3 4 5 5 3 5 11 12 10 8 7 6 5 6 12 12 12 11 11 11 11 11 11 12 11 11 11 11 11 11 11 12 12 11 11 11 10 9 8
4 4 3 2 1 1 1 2 4 3 3 3 5 6 4 6 8 10 9 8 7 6 5 4 5 8 11 11 11 11 11 11 10 10 11 11 10 10 10 10 10 10 10 10 10 10 9 8 8
4 5 2 0 1 1 0 2 3 4 3 4 5 7 7 9 10 10 8 7 6 5 4 4 4 4 4 5 10 10 10 10 10 10 10 10 10 9 9 8 9 9 9 9 9 9 8 7 7
4 5 1 3 3 2 1 3 2 3 4 3 3 4 8 16 14 12 9 7 5 5 3 4 4 4 4 4 6 8 9 8 8 7 9 7 4 4 4 6 8 8 8 8 7 7 7 6 6
4 3 5 4 3 3 2 3 4 3 3 3 5 9 16 16 15 14 13 12 9 8 5 4 4 4 4 4 4 3 3 4 4 4 4 4 3 2 3 4 6 6 6 6 6 7 6 5 3
4 5 4 3 4 3 3 2 4 6 4 6 11 17 18 17 14 13 12 11 10 8 7 5 4 4 4 3 3 2 2 3 3 4 4 3 3 2 2 2 2 3 4 3 4 4 3 3 2
3 3 3 3 3 3 4 4 3 5 5 6 14 21 20 18 15 14 13 11 8 8 7 6 5 4 3 3 3 3 2 2 2 2 3 3 2 2 1 1 2 2 2 2 2 2 2 2 2
3 2 3 3 2 3 4 3 3 3 2 11 15 17 17 16 13 10 9 9 9 9 8 7 6 5 4 3 3 3 2 2 2 2 2 3 2 2 1 1 1 2 1 1 1 1 2 2 2
3 2 2 2 1 2 4 1 2 2 9 14 16 16 15 15 13 10 10 10 10 10 9 8 7 6 5 4 3 3 3 2 2 2 2 3 2 2 2 1 1 1 1 1 1 1 1 1 1
1 1 3 1 2 2 5 0 4 4 11 14 15 14 13 11 11 13 13 11 11 10 9 8 8 6 6 5 4 3 3 3 2 2 3 3 3 3 2 2 1 1 1 1 1 1 1 1 1
2 3 1 3 1 3 6 5 4 7 12 12 12 13 12 11 12 11 10 9 9 9 9 9 9 8 6 5 4 3 3 3 3 2 3 4 4 3 3 2 1 1 1 1 1 1 1 1 1
4 2 1 2 0 2 4 4 3 8 11 11 11 11 11 10 10 10 10 10 10 10 10 9 8 8 7 5 4 3 3 3 3 3 3 3 4 4 3 2 2 2 1 1 1 1 1 1 1
3 2 1 1 1 2 2 4 3 7 10 10 10 10 10 13 13 11 10 10 9 9 8 9 8 7 6 4 3 2 2 2 2 3 3 4 4 4 4 3 2 2 2 1 1 2 1 1 1
4 3 1 3 2 1 3 4 4 6 8 9 9 10 11 12 9 9 10 10 10 9 9 10 9 8 7 4 4 4 3 2 2 3 4 4 4 5 4 3 3 3 3 3 3 2 2 1 1
3 2 1 2 2 1 1 4 3 6 10 11 11 12 12 9 8 9 10 10 11 12 11 11 10 10 9 6 4 3 3 2 2 2 3 4 5 5 5 4 4 4 3 3 3 3 2 1 1
2 3 3 1 3 3 1 4 2 3 4 5 6 8 9 11 12 11 12 12 11 13 13 12 11 10 9 7 4 3 2 2 2 2 2 3 4 5 4 5 4 4 4 3 3 3 4 2 1
3 4 4 2 2 2 1 2 5 3 3 6 8 8 10 11 11 11 12 13 13 13 11 10 11 10 9 8 7 7 6 5 5 4 3 3 4 4 5 4 4 4 4 4 4 4 3 3 2
6 3 3 2 3 1 1 2 7 1 4 8 9 10 10 10 12 13 14 13 11 10 10 9 9 9 9 9 9 8 6 4 3 2 4 4 3 4 5 5 5 4 4 4 4 3 4 3 3
5 6 6 6 5 0 3 3 6 4 7 7 8 10 10 10 10 10 9 9 8 8 9 9 9 9 9 9 9 8 8 6 6 5 5 4 3 3 5 5 5 5 4 4 4 4 4 3 3
5 6 4 3 3 5 2 3 9 7 6 8 8 9 8 8 9 9 9 10 10 10 10 10 11 10 10 10 9 9 8 8 8 7 6 5 4 4 5 5 5 4 4 4 4 4 4 4 4
6 9 9 6 5 4 1 5 8 5 4 5 5 5 5 6 7 9 10 10 10 10 10 10 11 10 10 10 10 8 8 6 5 6 5 6 5 5 5 6 6 6 5 5 4 3 4 3 4
8 5 7 7 2 0 4 6 8 3 3 3 2 2 4 6 7 8 8 9 9 9 10 11 11 10 10 10 9 8 8 7 6 6 5 5 4 4 5 6 6 6 6 5 5 4 4 4 4
7 10 6 7 6 2 3 4 5 5 4 3 2 2 3 3 5 7 7 8 8 8 7 8 9 9 9 8 8 7 7 7 7 6 6 6 5 5 5 6 6 6 5 5 5 4 4 4 4
5 5 6 5 5 7 3 7 7 7 5 4 4 3 3 3 5 6 6 6 7 6 6 7 7 7 7 8 8 7 7 6 6 6 6 6 5 5 6 6 6 6 6 5 5 5 5 5 4
6 8 8 7 4 4 4 8 5 4 4 4 4 2 1 2 3 4 5 6 6 7 7 6 6 7 7 6 6 6 6 6 6 6 6 5 5 5 6 6 6 6 6 6 6 6 6 6 5
Wind_Direction
286 293 141 72 54 50 42 356 23 39 50 49 76 82 95 80 101 131 122 132 127 128 126 127 124 120 115 112 111 110 111 111 112 113 114 114 113 113 112 111 111 110 110 111 112 111 111 110 110
277 245 60 57 73 60 352 337 29 42 128 114 75 69 72 67 73 105 127 135 130 128 123 131 129 124 118 115 114 113 113 113 114 115 115 115 115 114 113 113 112 111 112 112 113 113 113 113 113
271 59 74 65 80 131 199 319 105 70 88 75 75 61 68 98 116 123 141 135 124 121 122 139 131 127 122 119 116 115 116 116 117 117 116 116 116 115 115 114 115 114 115 114 114 115 115 115 114
61 42 52 65 73 200 195 180 129 109 59 60 94 77 70 93 126 132 135 133 126 121 125 139 134 130 126 122 119 118 120 120 120 120 118 118 117 117 117 116 115 115 116 115 116 117 117 117 116
58 68 57 45 349 282 217 178 149 134 96 80 90 87 53 42 110 127 134 135 132 126 127 138 136 132 129 126 123 123 125 124 123 122 121 120 120 119 119 118 115 115 115 115 115 114 114 115 116
53 63 75 61 302 297 229 182 132 102 101 98 96 94 67 115 125 134 132 131 131 128 124 133 139 136 133 131 129 126 126 125 126 125 124 123 121 120 120 119 117 116 116 115 114 114 113 113 115
95 88 120 172 250 294 192 137 127 120 118 123 114 103 111 141 136 133 127 124 124 122 119 122 133 137 139 136 133 130 128 127 128 128 128 127 125 123 121 120 120 119 118 117 116 115 113 113 118
118 98 91 213 199 247 182 96 103 116 120 115 115 137 158 160 139 126 119 116 119 117 119 122 118 117 122 132 137 135 134 131 131 131 131 130 128 125 124 122 123 122 120 120 116 112 109 111 120
90 77 154 208 188 214 154 95 75 89 116 117 113 139 147 141 137 133 132 131 138 141 129 127 124 119 118 129 144 137 135 132 128 128 127 111 90 95 111 126 129 126 124 121 114 105 102 107 116
92 132 217 211 191 179 162 132 134 107 123 99 84 105 130 144 149 153 158 163 166 167 163 147 141 137 135 142 115 100 102 103 94 89 94 88 88 93 107 125 129 125 119 113 104 96 93 90 90
147 186 223 222 201 175 154 141 136 139 190 194 159 147 150 155 160 165 169 172 173 170 172 163 154 147 139 119 117 98 92 93 94 98 101 98 88 80 75 83 96 89 93 78 77 75 74 85 97
171 233 225 227 187 172 158 148 149 181 215 177 158 153 157 164 171 174 173 174 170 170 177 167 159 151 142 126 125 119 114 113 114 115 118 111 101 87 82 87 86 76 69 72 67 69 67 86 109
202 252 239 231 229 180 138 156 162 217 155 131 143 154 164 170 175 176 172 171 171 178 179 174 166 162 152 141 149 141 138 138 137 131 135 134 130 128 105 93 90 85 80 82 74 68 66 71 96
226 242 288 264 199 168 138 130 138 201 135 139 153 165 172 176 176 171 171 177 180 181 180 175 174 169 160 162 161 153 153 148 144 158 166 156 149 146 139 124 109 112 108 105 99 92 81 74 90
307 4 350 352 150 152 118 105 220 167 144 153 165 172 176 181 182 185 184 182 182 181 177 178 177 171 172 174 176 165 161 156 164 176 178 173 167 163 156 155 167 175 134 116 97 78 79 105 101
64 69 20 307 138 151 140 222 224 157 155 165 173 177 182 187 192 193 186 181 178 174 175 181 185 177 179 179 177 166 165 167 177 177 181 183 177 169 156 161 182 171 139 132 129 112 97 89 93
45 114 171 294 223 137 156 227 211 164 165 173 179 185 188 190 195 194 189 184 180 179 177 178 180 174 178 177 173 170 166 177 181 176 181 181 177 171 161 171 175 153 138 147 168 128 136 138 135
174 149 146 230 273 127 189 240 207 176 177 182 186 190 192 198 201 191 186 183 180 177 175 177 177 173 167 163 159 156 165 181 178 182 186 176 177 174 164 171 169 158 151 158 150 140 122 133 140
148 134 185 250 255 165 225 246 222 184 185 192 195 197 202 208 198 183 183 181 178 176 177 180 179 175 167 169 172 172 185 181 183 194 189 179 178 176 172 176 167 166 175 180 166 145 134 117 113
141 128 263 315 346 146 238 273 247 194 198 198 198 202 205 201 187 189 186 184 184 185 185 185 185 181 181 184 174 161 156 167 177 187 187 184 181 180 184 178 175 175 173 173 170 153 139 140 133
176 179 194 218 4 31 74 329 277 243 213 203 209 210 207 202 196 194 192 192 190 191 190 190 187 184 184 175 149 124 111 107 148 181 191 196 188 186 186 182 177 180 176 184 185 170 163 167 164
219 213 181 155 89 316 70 283 283 259 242 221 219 213 212 208 199 195 195 195 196 196 192 188 183 183 181 173 171 170 177 189 198 186 187 190 188 188 190 184 183 183 185 190 193 182 170 161 172
197 177 148 134 138 49 4 167 282 303 248 241 228 221 217 209 201 197 197 198 196 189 185 185 180 182 180 180 181 182 189 191 174 169 182 192 191 193 192 187 187 189 192 198 193 179 177 176 173
145 77 59 51 77 140 232 173 271 232 224 241 234 225 218 208 202 198 192 184 182 178 178 177 179 186 182 183 185 189 188 182 177 186 192 195 193 199 198 192 194 196 195 197 196 189 186 190 183
114 97 53 20 29 242 251 189 248 246 233 234 241 234 221 205 196 190 183 181 179 179 180 178 181 191 188 188 194 196 193 190 194 194 195 194 198 205 208 200 197 200 201 198 187 187 196 193 188
165 140 153 176 201 257 283 227 252 257 265 263 258 237 208 199 194 188 186 182 181 183 182 181 187 192 190 194 199 198 195 195 201 199 193 199 207 209 201 198 200 200 197 196 186 191 203 194 196
136 165 152 126 142 145 274 283 299 273 294 286 268 221 207 198 187 183 180 177 176 180 185 187 190 193 193 195 194 195 196 196 198 195 195 201 206 205 196 197 200 199 194 192 184 195 201 191 200
141 142 111 123 142 203 281 276 253 260 258 267 263 236 226 191 181 181 179 177 176 177 181 184 190 194 191 191 194 198 198 199 196 190 198 202 204 200 190 195 197 195 192 190 190 196 196 190 202
113 107 111 116 145 151 209 264 231 223 224 231 245 243 218 189 183 181 180 172 168 160 169 183 187 187 186 192 194 193 194 192 190 198 204 203 202 194 197 199 195 197 197 194 194 200 194 198 203
142 152 142 144 181 163 167 261 270 221 226 234 248 254 196 178 175 169 165 157 160 163 169 177 183 185 187 187 183 186 187 185 190 203 208 202 203 201 202 197 197 201 201 197 199 205 200 199 201